Location: Oshawa
(43.9000°N, 78.8670°W)
Time: 10:57:14
(UTC-04:00)

Thor Agena Rocket - Visible Passes

Search period start: 30 July 2016 00:00
Search period end: 09 August 2016 00:00
Orbit: 759 x 809 km, 99.1° (Epoch: 30 July)

Date Brightness Start Highest point End Pass type
(mag) Time Alt. Az. Time Alt. Az. Time Alt. Az.
30 Jul 6.0 03:51:19 10° ESE 03:55:02 21° ENE 03:58:48 10° NNE visible
31 Jul 6.5 03:22:30 10° ENE 03:24:16 12° NE 03:26:03 10° NE visible
31 Jul 3.6 04:57:42 10° SSE 05:02:44 81° ENE 05:07:49 10° NNW visible
01 Aug 4.8 04:26:55 10° SE 04:31:39 42° ENE 04:36:24 10° N visible
02 Aug 5.9 03:56:46 10° ESE 04:00:42 23° ENE 04:04:39 10° N visible
03 Aug 6.5 03:27:38 10° E 03:29:54 13° NE 03:32:10 10° NNE visible
03 Aug 3.5 05:03:23 10° SSE 05:08:26 89° ENE 05:13:33 10° NNW visible
04 Aug 4.6 04:32:31 10° SE 04:37:19 47° ENE 04:42:10 10° N visible
05 Aug 5.7 04:02:15 10° ESE 04:06:21 26° ENE 04:10:29 10° N visible
06 Aug 6.4 03:32:53 10° E 03:35:32 14° ENE 03:38:12 10° NNE visible
06 Aug 3.5 05:09:06 10° SSE 05:14:08 83° WSW 05:19:16 10° NNW visible
07 Aug 4.4 04:38:07 10° SE 04:43:00 52° ENE 04:47:56 10° N visible
08 Aug 5.6 04:07:45 10° ESE 04:12:00 28° ENE 04:16:18 10° N visible
